FW8892 Weather Reports


Display with metric or nautical units.
time (UTC)temp
F
wind
direction
speed
MPH
gust
MPH
rain 1hr
in
rain 24hr
in
rain mn
in
humidity
%
barometer
mb
20240523093528 64 131 0.0 3.0 0.00 2.10 0.02 98 1013.4
20240523093045 64 0 0.0 3.0 0.01 2.10 0.02 98 1013.4
20240523092529 64 142 1.0 2.0 0.01 2.10 0.02 98 1013.3
20240523092029 64 0 0.0 2.0 0.01 2.10 0.02 98 1013.2
20240523091539 64 0 0.0 2.0 0.02 2.10 0.02 98 1013.3
20240523091027 64 0 0.0 2.0 0.02 2.10 0.02 98 1013.2
20240523090527 64 0 0.0 0.0 0.02 2.10 0.02 98 1013.3
20240523090037 64 0 0.0 0.0 0.02 2.10 0.02 98 1013.4
20240523085531 64 0 0.0 0.0 0.02 2.10 0.02 98 1013.5
20240523085028 64 0 0.0 0.0 0.02 2.10 0.02 98 1013.5
20240523084608 64 0 0.0 0.0 0.02 2.10 0.02 98 1013.8
20240523084029 64 0 0.0 0.0 0.02 2.10 0.02 98 1013.7
20240523083528 64 0 0.0 0.0 0.01 2.09 0.01 98 1013.9
20240523083031 64 0 0.0 0.0 0.01 2.09 0.01 98 1014.1
20240523082528 64 0 0.0 1.0 0.01 2.09 0.01 98 1014.0
20240523082028 64 0 0.0 1.0 0.01 2.09 0.01 98 1014.0
20240523081534 64 0 0.0 1.0 0.00 2.08 0.00 98 1014.2
20240523081033 64 0 0.0 1.0 0.00 2.08 0.00 98 1013.9
20240523080530 64 0 0.0 3.0 0.00 2.08 0.00 98 1014.0
20240523080035 64 0 0.0 3.0 0.00 2.08 0.00 99 1013.9
20240523075530 64 155 1.0 3.0 0.00 2.08 0.00 99 1013.7
20240523075029 64 0 1.0 5.0 0.00 2.08 0.00 99 1013.8
20240523074534 64 155 2.0 5.0 0.00 2.08 0.00 99 1014.0
20240523074029 64 157 0.0 5.0 0.00 2.08 0.00 99 1014.1
20240523073530 64 138 1.0 5.0 0.00 2.08 0.00 99 1014.1
20240523073038 64 128 1.0 5.0 0.00 2.08 0.00 98 1014.0
20240523072530 64 123 1.0 5.0 0.00 2.08 0.00 98 1013.8
20240523072029 64 119 1.0 5.0 0.00 2.08 0.00 98 1013.6
20240523071540 63 141 1.0 3.0 0.00 2.08 0.00 98 1013.5
20240523071029 63 0 0.0 2.0 0.00 2.08 0.00 98 1013.6
20240523070528 63 0 0.0 2.0 0.00 2.08 0.00 98 1013.6
20240523070039 63 0 0.0 3.0 0.00 2.08 0.00 98 1013.7
20240523065529 63 143 0.0 3.0 0.00 2.08 0.00 98 1013.6
20240523065027 63 184 0.0 3.0 0.00 2.08 0.00 98 1013.5
20240523064547 63 0 0.0 0.0 0.00 2.08 0.00 98 1013.6
20240523064027 63 0 0.0 1.0 0.00 2.08 0.00 98 1013.7
20240523063530 63 0 0.0 1.0 0.00 2.08 0.00 98 1013.8
20240523063038 63 0 0.0 3.0 0.00 2.08 0.00 98 1013.7
20240523062528 63 153 0.0 3.0 0.00 2.08 0.00 98 1013.8
20240523062030 63 119 0.0 3.0 0.00 2.08 0.00 98 1013.8
20240523061538 63 142 1.0 3.0 0.00 2.08 0.00 98 1013.7
20240523061029 63 0 1.0 3.0 0.00 2.08 0.00 98 1013.8
20240523060529 63 140 0.0 2.0 0.00 2.08 0.00 98 1014.1
20240523060039 63 0 0.0 2.0 0.00 2.08 0.00 98 1014.5
20240523055526 63 0 0.0 2.0 0.00 2.08 0.00 98 1014.7
20240523055027 63 0 0.0 2.0 0.00 2.08 0.00 98 1014.8
20240523054537 63 135 0.0 2.0 0.00 2.08 0.00 98 1014.9
20240523054029 63 0 0.0 2.0 0.00 2.08 0.00 98 1014.9
20240523053528 63 0 0.0 2.0 0.00 2.08 0.00 98 1015.1
20240523053031 63 133 0.0 2.0 0.00 2.08 0.00 98 1015.0
20240523052533 63 133 0.0 2.0 0.00 2.08 0.00 98 1015.1
20240523052030 63 0 0.0 2.0 0.00 2.08 0.00 98 1015.1
20240523051541 63 0 0.0 1.0 0.00 2.08 0.00 98 1015.3
20240523051029 63 0 0.0 1.0 0.00 2.08 0.00 98 1015.3
20240523050530 64 0 0.0 2.0 0.00 2.08 0.00 98 1015.2
20240523050034 64 0 0.0 3.0 0.00 2.08 0.00 98 1015.3
20240523045529 64 150 0.0 3.0 0.00 2.08 2.08 98 1015.4
20240523045033 64 0 0.0 3.0 0.00 2.08 2.08 98 1015.5
20240523044528 64 138 1.0 2.0 0.00 2.08 2.08 98 1015.3
20240523044030 64 0 0.0 0.0 0.00 2.08 2.08 98 1015.5
20240523043534 64 0 0.0 0.0 0.00 2.08 2.08 98 1015.4
20240523043038 64 0 0.0 3.0 0.00 2.08 2.08 98 1015.4
20240523042529 64 0 0.0 3.0 0.00 2.08 2.08 98 1015.5
20240523042029 64 125 0.0 3.0 0.00 2.08 2.08 98 1015.3
20240523041539 64 0 0.0 3.0 0.00 2.08 2.08 98 1015.4
20240523041031 64 0 0.0 3.0 0.00 2.08 2.08 98 1015.3
20240523040529 64 104 1.0 3.0 0.00 2.08 2.08 98 1015.4
20240523040049 64 0 0.0 2.0 0.00 2.08 2.08 98 1015.5
20240523035530 64 127 0.0 2.0 0.00 2.08 2.08 98 1015.3
20240523035031 64 128 0.0 2.0 0.00 2.08 2.08 98 1015.3
20240523034532 64 0 0.0 2.0 0.00 2.08 2.08 98 1015.3
20240523034029 64 119 1.0 2.0 0.00 2.08 2.08 98 1015.3
20240523033607 64 114 0.0 3.0 0.00 2.08 2.08 98 1015.3
20240523033039 64 127 1.0 4.0 0.00 2.08 2.08 98 1015.2
20240523032529 64 125 1.0 5.0 0.00 2.08 2.08 98 1015.2
20240523032029 64 0 1.0 9.0 0.00 2.08 2.08 98 1015.0
20240523031541 64 135 3.0 9.0 0.00 2.08 2.08 98 1014.7
20240523031029 64 142 3.0 7.0 0.01 2.08 2.08 98 1014.5
20240523030529 64 0 2.0 7.0 0.01 2.08 2.08 98 1014.6
20240523030037 64 122 2.0 4.0 0.01 2.08 2.08 98 1014.6
20240523025530 64 132 1.0 5.0 0.01 2.08 2.08 98 1014.8
20240523025029 64 126 1.0 6.0 0.02 2.08 2.08 98 1014.9
20240523024546 64 132 1.0 6.0 0.02 2.08 2.08 98 1014.8
20240523024030 64 109 2.0 5.0 0.03 2.08 2.08 98 1014.4
20240523023530 64 152 1.0 4.0 0.04 2.08 2.08 98 1014.3
20240523023035 64 133 1.0 4.0 0.05 2.08 2.08 98 1014.1
20240523022531 64 0 0.0 4.0 0.06 2.08 2.08 97 1014.4
20240523022029 64 141 2.0 4.0 0.07 2.08 2.08 97 1014.4
20240523021541 64 133 0.0 3.0 0.08 2.08 2.08 97 1014.4
20240523021030 64 0 0.0 4.0 0.08 2.08 2.08 97 1014.2
20240523020529 64 90 1.0 4.0 0.09 2.08 2.08 97 1014.3
20240523020030 64 96 2.0 5.0 0.10 2.08 2.08 97 1014.2
20240523015531 64 109 1.0 5.0 0.11 2.08 2.08 97 1014.2
20240523015029 64 91 2.0 6.0 0.12 2.07 2.07 97 1014.1
20240523014542 64 111 3.0 6.0 0.12 2.06 2.06 97 1014.5
20240523014032 64 68 1.0 4.0 0.14 2.06 2.06 97 1014.4
20240523013532 64 125 1.0 4.0 0.14 2.05 2.05 97 1014.4
20240523013035 64 110 1.0 4.0 0.15 2.04 2.04 97 1014.3
20240523012527 64 131 1.0 3.0 0.15 2.03 2.03 97 1014.2
20240523012029 64 161 0.0 3.0 0.16 2.02 2.02 97 1014.1
20240523011541 64 126 1.0 3.0 0.17 2.01 2.01 97 1014.0
20240523011030 64 166 0.0 3.0 0.17 2.00 2.00 97 1014.1
20240523010530 64 164 0.0 3.0 0.18 1.99 1.99 97 1014.1
20240523010031 64 158 1.0 3.0 0.19 1.98 1.98 97 1014.1
20240523005530 64 0 1.0 4.0 0.20 1.97 1.97 97 1013.8
20240523005032 64 90 0.0 4.0 0.20 1.95 1.95 97 1013.9
20240523004539 64 104 2.0 4.0 0.21 1.94 1.94 97 1014.0
20240523004030 64 142 2.0 4.0 0.21 1.92 1.92 97 1014.0
20240523003530 64 124 1.0 4.0 0.23 1.91 1.91 97 1014.1
20240523003038 64 152 1.0 5.0 0.23 1.89 1.89 97 1014.3
20240523002529 64 150 1.0 7.0 0.24 1.88 1.88 97 1014.2
20240523002030 64 151 1.0 7.0 0.25 1.86 1.86 97 1014.1
20240523001534 64 159 3.0 6.0 0.25 1.84 1.84 97 1014.0
20240523001029 64 144 2.0 6.0 0.26 1.82 1.82 97 1013.7
20240523000529 64 137 2.0 6.0 0.27 1.81 1.81 97 1013.7
20240523000038 64 130 2.0 4.0 0.28 1.79 1.79 97 1013.6
20240522235533 64 0 0.0 4.0 0.29 1.77 1.77 97 1013.4
20240522235031 64 163 0.0 4.0 0.29 1.75 1.75 97 1013.5
20240522234533 64 96 1.0 4.0 0.30 1.73 1.73 97 1013.3
20240522234030 64 0 1.0 6.0 0.30 1.70 1.70 97 1013.3
20240522233531 64 0 1.0 6.0 0.31 1.68 1.68 97 1013.4
20240522233030 64 174 3.0 6.0 0.32 1.66 1.66 97 1013.6
20240522232531 64 182 1.0 7.0 0.33 1.64 1.64 97 1013.7
20240522232030 64 184 3.0 7.0 0.33 1.61 1.61 97 1013.9
20240522231540 64 214 3.0 10.0 0.34 1.59 1.59 97 1014.3
20240522231032 64 184 4.0 10.0 0.34 1.56 1.56 97 1014.1
20240522230533 64 204 3.0 8.0 0.35 1.53 1.53 97 1014.5
20240522230034 64 283 4.0 9.0 0.36 1.51 1.51 97 1014.9
20240522225529 63 207 4.0 9.0 0.36 1.48 1.48 97 1014.8
20240522225029 63 248 3.0 9.0 0.37 1.45 1.45 96 1014.9
20240522224534 63 219 5.0 11.0 0.38 1.43 1.43 96 1015.0
20240522224031 64 0 3.0 11.0 0.38 1.40 1.40 96 1015.0
20240522223529 64 192 4.0 10.0 0.39 1.37 1.37 96 1015.2
20240522223031 64 232 4.0 10.0 0.39 1.34 1.34 96 1015.3
20240522222530 64 227 4.0 11.0 0.40 1.31 1.31 96 1015.4
20240522222029 64 231 5.0 11.0 0.41 1.28 1.28 96 1015.6
20240522221534 64 236 3.0 12.0 0.40 1.24 1.24 96 1015.3
20240522221030 64 226 5.0 12.0 0.41 1.21 1.21 96 1015.3
20240522220530 64 219 5.0 14.0 0.42 1.17 1.17 96 1015.2
20240522220045 64 219 5.0 14.0 0.42 1.15 1.15 96 1015.3
20240522215530 64 202 5.0 10.0 0.42 1.11 1.11 97 1014.9
20240522215030 64 198 4.0 10.0 0.43 1.08 1.08 97 1014.6
20240522214547 64 176 3.0 10.0 0.44 1.04 1.04 97 1014.3
20240522214029 64 193 4.0 10.0 0.44 1.01 1.01 96 1014.0
20240522213529 64 210 2.0 5.0 0.45 0.98 0.98 96 1013.7
20240522213031 63 240 1.0 4.0 0.45 0.94 0.94 96 1013.8
20240522212530 63 206 0.0 4.0 0.44 0.90 0.90 95 1013.7
20240522212030 63 213 0.0 4.0 0.44 0.87 0.87 95 1013.7
20240522211535 63 0 0.0 4.0 0.43 0.83 0.83 94 1013.7
20240522211025 63 0 0.0 3.0 0.42 0.79 0.79 94 1013.9
20240522210528 63 0 0.0 4.0 0.42 0.76 0.76 93 1014.0
20240522210032 64 355 0.0 4.0 0.41 0.72 0.72 93 1014.0
20240522205525 64 0 0.0 5.0 0.39 0.68 0.68 92 1014.0
20240522205027 64 271 1.0 11.0 0.39 0.65 0.65 92 1014.6
20240522204539 65 218 5.0 12.0 0.36 0.61 0.61 91 1015.0
20240522204028 66 96 3.0 17.0 0.34 0.57 0.57 89 1014.6
20240522203526 67 337 5.0 17.0 0.30 0.52 0.52 92 1015.2
20240522203030 68 312 8.0 17.0 0.26 0.49 0.49 93 1015.9
20240522202525 68 232 2.0 6.0 0.22 0.45 0.45 91 1015.7
20240522202028 69 0 0.0 4.0 0.20 0.43 0.43 88 1014.7
20240522201544 70 223 1.0 9.0 0.17 0.40 0.40 87 1014.0
20240522201027 71 249 1.0 9.0 0.13 0.36 0.36 89 1013.6
20240522200525 72 212 4.0 9.0 0.11 0.34 0.34 89 1013.5
20240522200033 73 186 2.0 6.0 0.08 0.31 0.31 91 1013.4
20240522195525 73 231 2.0 9.0 0.05 0.28 0.28 91 1013.8
20240522195028 74 225 1.0 9.0 0.03 0.26 0.26 90 1013.7
20240522194539 74 295 1.0 5.0 0.02 0.25 0.25 89 1013.9
20240522194026 75 278 1.0 5.0 0.00 0.23 0.23 89 1014.0
20240522193526 75 257 0.0 2.0 0.00 0.23 0.23 89 1013.7
20240522193031 75 0 0.0 2.0 0.00 0.23 0.23 88 1013.4
20240522192526 75 0 0.0 2.0 0.00 0.23 0.23 87 1013.5
20240522192026 76 224 0.0 2.0 0.00 0.23 0.23 87 1013.7
20240522191537 76 0 0.0 2.0 0.00 0.23 0.23 86 1012.9
20240522191026 76 0 0.0 2.0 0.00 0.23 0.23 86 1013.4
20240522190531 77 0 0.0 2.0 0.00 0.23 0.23 84 1013.0
20240522190041 77 0 0.0 1.0 0.00 0.23 0.23 83 1012.8
20240522185528 77 0 0.0 1.0 0.00 0.23 0.23 83 1013.0
20240522185029 77 0 0.0 3.0 0.00 0.23 0.23 82 1012.9
20240522184549 78 0 0.0 5.0 0.00 0.23 0.23 81 1013.1
20240522184025 78 0 1.0 7.0 0.00 0.23 0.23 81 1013.4
20240522183528 78 194 2.0 8.0 0.00 0.23 0.23 80 1013.3
20240522183031 78 246 3.0 8.0 0.00 0.23 0.23 79 1013.3
20240522182528 78 219 1.0 6.0 0.00 0.23 0.23 80 1013.1
20240522182032 78 233 0.0 7.0 0.00 0.23 0.23 81 1013.3
20240522181531 78 208 2.0 8.0 0.00 0.23 0.23 80 1012.9
20240522181028 78 196 1.0 8.0 0.00 0.23 0.23 79 1013.0
20240522180532 78 209 2.0 9.0 0.00 0.23 0.23 79 1013.2
20240522180043 78 225 2.0 11.0 0.00 0.23 0.23 79 1013.2
20240522175530 79 279 3.0 12.0 0.00 0.23 0.23 78 1013.4
20240522175027 79 213 4.0 12.0 0.00 0.23 0.23 77 1013.3
20240522174706 79 231 4.0 16.0 0.00 0.23 0.23 76 1013.5
20240522174546 80 258 5.0 16.0 0.00 0.23 0.23 75 1013.5
20240522174422 81 214 4.0 18.0 0.00 0.23 0.23 76 1013.5
20240522174302 81 243 7.0 18.0 0.00 0.23 0.23 75 1013.6
20240522174131 82 220 7.0 15.0 0.00 0.23 0.23 76 1013.6
20240522173701 82 200 5.0 12.0 0.00 0.23 0.23 80 1013.3
20240522173053 81 237 4.0 10.0 0.00 0.23 0.23 82 1013.5
20240522172434 80 205 4.0 9.0 0.02 0.23 0.23 84 1013.4
20240522171755 80 188 2.0 11.0 0.05 0.23 0.23 86 1013.5
20240522171013 79 184 3.0 11.0 0.05 0.23 0.23 87 1013.6
20240522170400 78 172 3.0 9.0 0.05 0.23 0.23 86 1013.7
20240522165744 78 196 4.0 12.0 0.05 0.23 0.23 86 1013.8
20240522165117 78 193 6.0 12.0 0.05 0.23 0.23 86 1013.8
20240522164459 78 195 3.0 7.0 0.06 0.23 0.23 87 1013.8
20240522163839 77 221 2.0 9.0 0.07 0.23 0.23 89 1013.8
20240522163237 77 173 2.0 9.0 0.07 0.23 0.23 91 1013.7
20240522162631 76 202 3.0 10.0 0.07 0.23 0.23 91 1013.7
20240522162103 75 229 2.0 10.0 0.07 0.23 0.23 92 1013.8
20240522161533 75 191 5.0 10.0 0.06 0.22 0.22 89 1013.9
20240522161028 75 191 3.0 11.0 0.05 0.21 0.21 88 1013.9
20240522160526 75 109 4.0 11.0 0.02 0.18 0.18 89 1014.0
20240522160037 74 191 3.0 8.0 0.04 0.18 0.18 90 1014.0
20240522155527 74 192 3.0 10.0 0.08 0.18 0.18 89 1013.9
20240522155027 74 188 4.0 10.0 0.10 0.18 0.18 89 1013.9
20240522154535 74 167 3.0 10.0 0.12 0.18 0.18 89 1013.8
20240522154027 73 207 2.0 6.0 0.14 0.17 0.17 89 1013.8
20240522153525 73 177 2.0 7.0 0.15 0.16 0.16 89 1013.9
20240522153029 73 0 2.0 7.0 0.16 0.16 0.16 90 1013.8
20240522152526 73 140 4.0 8.0 0.16 0.16 0.16 90 1013.9
20240522152027 72 188 3.0 8.0 0.16 0.16 0.16 90 1013.9
20240522151530 72 192 2.0 6.0 0.16 0.16 0.16 89 1014.0
20240522151031 72 169 3.0 8.0 0.16 0.16 0.16 90 1014.1
20240522150532 72 171 4.0 8.0 0.15 0.15 0.15 89 1014.2
20240522150042 72 199 3.0 8.0 0.13 0.13 0.13 88 1014.1
20240522145530 72 205 2.0 9.0 0.10 0.10 0.10 87 1014.0
20240522145031 72 140 3.0 10.0 0.08 0.08 0.08 85 1014.2
20240522144535 73 211 3.0 10.0 0.05 0.05 0.05 84 1014.1
20240522144030 74 192 3.0 7.0 0.02 0.02 0.02 82 1014.1
20240522143529 74 215 3.0 11.0 0.01 0.01 0.01 80 1014.4
20240522143037 75 174 3.0 11.0 0.00 0.00 0.00 78 1014.4
20240522142530 75 209 3.0 10.0 0.00 0.00 0.00 77 1014.3
20240522142033 75 182 4.0 10.0 0.00 0.00 0.00 76 1014.2
20240522141544 76 173 2.0 9.0 0.00 0.00 0.00 76 1014.2
20240522141027 76 115 3.0 12.0 0.00 0.00 0.00 75 1014.1
20240522140530 76 155 5.0 12.0 0.00 0.00 0.00 74 1014.3
20240522140045 76 184 5.0 12.0 0.00 0.00 0.00 74 1014.3
20240522135529 76 159 4.0 12.0 0.00 0.00 0.00 75 1014.0
20240522135030 76 196 4.0 12.0 0.00 0.00 0.00 75 1014.2
20240522134532 75 194 4.0 11.0 0.00 0.00 0.00 77 1014.2
20240522134030 74 244 5.0 11.0 0.00 0.00 0.00 77 1014.2
20240522133530 74 172 5.0 11.0 0.00 0.00 0.00 77 1014.2
20240522133036 74 142 3.0 8.0 0.00 0.00 0.00 77 1014.3
20240522132530 74 232 3.0 9.0 0.00 0.00 0.00 77 1014.4
20240522132027 74 145 4.0 10.0 0.00 0.00 0.00 76 1014.2
20240522131550 74 170 3.0 12.0 0.00 0.00 0.00 74 1014.3
20240522131030 75 167 3.0 13.0 0.00 0.00 0.00 73 1014.4
20240522130531 75 193 5.0 13.0 0.00 0.00 0.00 72 1014.2
20240522130106 76 190 5.0 11.0 0.00 0.00 0.00 73 1014.2
20240522125530 75 139 3.0 12.0 0.00 0.00 0.00 74 1014.2
20240522125032 74 140 4.0 13.0 0.00 0.00 0.00 75 1014.1
20240522124537 74 207 4.0 13.0 0.00 0.00 0.00 75 1014.1
20240522124030 73 159 4.0 10.0 0.00 0.00 0.00 76 1014.0
20240522123530 73 160 3.0 10.0 0.00 0.00 0.00 76 1014.1
20240522123041 73 184 4.0 12.0 0.00 0.00 0.00 76 1014.3
20240522122530 73 189 4.0 12.0 0.00 0.00 0.00 76 1014.2
20240522122030 72 189 3.0 12.0 0.00 0.00 0.00 77 1014.2
20240522121537 72 136 3.0 12.0 0.00 0.00 0.00 77 1014.1
20240522121034 72 155 4.0 12.0 0.00 0.00 0.00 77 1014.0
20240522120531 72 150 4.0 9.0 0.00 0.00 0.00 77 1013.9
20240522120055 72 189 3.0 9.0 0.00 0.00 0.00 77 1013.8
20240522115527 72 177 3.0 9.0 0.00 0.00 0.00 77 1013.6
20240522115027 72 197 3.0 8.0 0.00 0.00 0.00 78 1013.6
20240522114553 71 178 3.0 8.0 0.00 0.00 0.00 78 1013.6
20240522114027 71 175 2.0 7.0 0.00 0.00 0.00 78 1013.6
20240522113527 71 182 2.0 8.0 0.00 0.00 0.00 78 1013.7
20240522113030 71 180 2.0 8.0 0.00 0.00 0.00 78 1013.6
20240522112527 71 183 2.0 8.0 0.00 0.00 0.00 78 1013.5
20240522112027 71 131 2.0 5.0 0.00 0.00 0.00 78 1013.3
20240522111536 71 137 1.0 6.0 0.00 0.00 0.00 77 1013.4
20240522111028 71 134 2.0 6.0 0.00 0.00 0.00 77 1013.4
20240522110527 71 209 1.0 7.0 0.00 0.00 0.00 77 1013.5
20240522110036 71 180 1.0 7.0 0.00 0.00 0.00 77 1013.4
20240522105527 72 171 2.0 7.0 0.00 0.00 0.00 77 1013.3
20240522105027 72 175 2.0 6.0 0.00 0.00 0.00 76 1013.2
20240522104532 72 171 3.0 8.0 0.00 0.00 0.00 76 1013.5
20240522104027 72 191 3.0 8.0 0.00 0.00 0.00 76 1013.5
20240522103527 72 169 2.0 7.0 0.00 0.00 0.00 76 1013.3
20240522103030 72 184 2.0 7.0 0.00 0.00 0.00 75 1013.4
20240522102526 72 138 3.0 7.0 0.00 0.00 0.00 76 1013.5
20240522102027 72 172 2.0 7.0 0.00 0.00 0.00 75 1013.3
20240522101537 72 167 2.0 10.0 0.00 0.00 0.00 75 1013.2
20240522101027 72 171 3.0 10.0 0.00 0.00 0.00 75 1013.3
20240522100528 72 165 2.0 7.0 0.00 0.00 0.00 75 1013.5
20240522100031 72 178 3.0 7.0 0.00 0.00 0.00 75 1013.4
20240522095527 72 170 3.0 8.0 0.00 0.00 0.00 74 1013.4
20240522095029 72 216 2.0 8.0 0.00 0.00 0.00 75 1013.5
20240522094535 72 175 3.0 7.0 0.00 0.00 0.00 74 1013.4
20240522094027 73 179 3.0 7.0 0.00 0.00 0.00 74 1013.3